sat.trackr.live / text

‹ back to catalog

STARLINK-31380

NORAD 58979 · 2024-031Q

PAYLOAD ACTIVE UNKNOWN

§ Identity

Operator
Country
US
Launch date
2024-02-15
Launch site
AFWTR
Launch vehicle
Mass (kg)
RCS (m²)

Purposes: comms

External: N2YO · Heavens-Above · Gunter

§ Orbital elements

Epoch: 2026-09-20T19:59:43.123200Z

Period
93.85 min
Inclination
53.1596°
Eccentricity
0.0001003
Mean motion
15.34391554 rev/d
Perigee alt
462.0 km
Apogee alt
463.4 km
Semi-major
6,840.9 km
B*
4.8745e-6
RAAN
107.9204°
Arg perigee
105.2197°
Mean anomaly
254.8917°
Rev number
14,642

§ Raw data

STARLINK-313801 58979U 24031Q   26263.83313800 -.00000211  00000+0  48745-5 0  99902 58979  53.1596 107.9204 0001003 105.2197 254.8917 15.34391554146424

JSON: /api/v1/satellites/58979 · /tle

For live sub-satellite position, see the globe view (requires WebGL).

§ Visibility from observer

Set your observer location to see the next 7 days of passes ≥ 10°. The values pass through the URL so the page stays shareable.

No JS? Fill the form by hand. The geolocation button needs JavaScript.